SES-20

Last updated on Tue Sep 22 2026 00:03:15 GMT+0000 (Coordinated Universal Time)

1 53960U 22123A 26263.96971851 -.00000105 00000+0 00000+0 0 9993 2 53960 0.0303 86.9117 0001883 20.3643 138.5883 1.00271276 14491
UTC large
Height (km)
Speed (km/s)
/
Latitude / Longitude
Inclination (degrees)
Orbital Period (minutes)
Azimuth
Elevation
Range (km)
Doppler Factor

Next 0 passes for location: London (51.5072 / 0.1276)

No passes found over London.
SES-20